Tracking 35055 objects as of 18-Aug-2026
HD Live streaming from Space Station
objects crossing your sky now

STARS-X

Track STARS-X now!
10-day predictions


NORAD ID: 69502
Int'l Code: 2026-132A
Launch date: June 12, 2026
Source: Japan (JPN)
Launch site: TANEGASHIMA SPACE CENTER (TNSTA)
Your satellite tracking list
Your tracking list is empty




NASA's NSSDC Master Catalog

Two Line Element Set (TLE):
1 69502U 26132A   26230.43036427  .00000805  00000-0  70841-4 0  9995
2 69502  97.6845 293.2798 0013428  59.0023 301.2517 14.99185871 10104
Source of the keplerian elements: AFSPC